When you browse on this site, cookies collect data to enhance your experience and personalize the content and advertising you see.
Visit our Privacy Policy to learn more. By continuing to use the site, you agree to this use of cookies and data.
  • In Hungary
  • List of Countries
  • For 7 days
  • Water Temperature
  • Satellite Maps
  • Weather Map
  • News
  • Weather Widgets
  • user-avatar
    Login

    Hourly Weather Dmynichi

    Today, 16 November, Friday

    Time Temperature Precipitation Wind Pressure Humidity
    00:00 -1°C° 0 mm 1 mps 761 mmHg 84%
    01:00 -1°C° 0 mm 1 mps 761 mmHg 83%
    02:00 -2°C° 0 mm 1 mps 762 mmHg 77%
    03:00 -2°C° 0 mm 1 mps 762 mmHg 77%
    04:00 -2°C° 0 mm 1 mps 762 mmHg 76%
    05:00 -2°C° 0 mm 1 mps 762 mmHg 75%
    06:00 -4°C° 0 mm 2 mps 763 mmHg 74%
    07:00 -4°C° 0 mm 2 mps 763 mmHg 73%
    08:00 -4°C° 0 mm 2 mps 763 mmHg 72%
    09:00 -3°C° 0 mm 2 mps 764 mmHg 68%
    10:00 -2°C° 0 mm 2 mps 764 mmHg 64%
    11:00 -1°C° 0 mm 2 mps 764 mmHg 59%
    12:00 -1°C° 0 mm 2 mps 764 mmHg 61%
    13:00 +2°C° 0 mm 1 mps 764 mmHg 62%
    14:00 +2°C° 0 mm 1 mps 765 mmHg 67%
    15:00 +1°C° 0 mm 1 mps 765 mmHg 68%
    16:00 0°C° 0 mm 1 mps 764 mmHg 69%
    17:00 -1°C° 0 mm 1 mps 764 mmHg 70%
    18:00 -1°C° 0 mm 1 mps 764 mmHg 68%
    19:00 -1°C° 0 mm 1 mps 765 mmHg 67%
    20:00 -2°C° 0 mm 1 mps 765 mmHg 66%
    21:00 -2°C° 0 mm 1 mps 765 mmHg 64%
    22:00 -2°C° 0 mm 1 mps 765 mmHg 62%
    23:00 -2°C° 0 mm 1 mps 765 mmHg 60%

    Tomorrow, 17 November, Saturday

    Time Temperature Precipitation Wind Pressure Humidity
    00:00 -2°C° 0 mm 1 mps 765 mmHg 59%
    01:00 -3°C° 0 mm 0 mps 765 mmHg 57%
    02:00 -3°C° 0 mm 0 mps 764 mmHg 56%
    03:00 -3°C° 0 mm 0 mps 764 mmHg 55%
    04:00 -3°C° 0 mm 0 mps 764 mmHg 55%
    05:00 -3°C° 0 mm 0 mps 764 mmHg 54%
    06:00 -2°C° 0 mm 1 mps 763 mmHg 55%
    07:00 -2°C° 0 mm 1 mps 763 mmHg 55%
    08:00 -2°C° 0 mm 1 mps 763 mmHg 56%
    09:00 -1°C° 0 mm 1 mps 763 mmHg 55%
    10:00 0°C° 0 mm 1 mps 763 mmHg 54%
    11:00 +1°C° 0 mm 1 mps 762 mmHg 53%
    12:00 -1°C° 0 mm 2 mps 762 mmHg 55%
    13:00 -1°C° 0 mm 2 mps 761 mmHg 58%
    14:00 -1°C° 0 mm 2 mps 760 mmHg 61%
    15:00 -1°C° 0 mm 2 mps 760 mmHg 63%
    16:00 -2°C° 0 mm 3 mps 759 mmHg 66%
    17:00 -4°C° 0 mm 3 mps 759 mmHg 69%
    18:00 -2°C° 0 mm 3 mps 758 mmHg 70%
    19:00 -2°C° 0 mm 3 mps 757 mmHg 71%
    20:00 -2°C° 0 mm 3 mps 756 mmHg 72%
    21:00 -3°C° 0 mm 4 mps 756 mmHg 76%
    22:00 -3°C° 0 mm 4 mps 755 mmHg 80%
    23:00 -3°C° 0 mm 4 mps 754 mmHg 84%

    Day after tomorrow, 18 November, Sunday

    Time Temperature Precipitation Wind Pressure Humidity
    00:00 -3°C° 0 mm 4 mps 753 mmHg 86%
    01:00 -3°C° 0 mm 4 mps 753 mmHg 89%
    02:00 -2°C° 0 mm 4 mps 752 mmHg 91%
    03:00 -2°C° 0.1 mm 4 mps 751 mmHg 92%
    04:00 -2°C° 0.1 mm 4 mps 750 mmHg 94%
    05:00 -2°C° 0.1 mm 4 mps 749 mmHg 95%
    06:00 -2°C° 0.1 mm 4 mps 748 mmHg 95%
    07:00 -1°C° 0.1 mm 4 mps 748 mmHg 95%
    08:00 0°C° 0.1 mm 3 mps 748 mmHg 96%
    09:00 0°C° 0.1 mm 3 mps 747 mmHg 96%
    10:00 0°C° 0.1 mm 3 mps 747 mmHg 96%
    11:00 +1°C° 0.1 mm 3 mps 747 mmHg 96%
    12:00 +2°C° 0.1 mm 2 mps 746 mmHg 97%
    13:00 +2°C° 0.1 mm 2 mps 746 mmHg 97%
    14:00 +2°C° 0.1 mm 2 mps 746 mmHg 98%
    15:00 +2°C° 0.1 mm 2 mps 746 mmHg 98%
    16:00 +2°C° 0.1 mm 1 mps 746 mmHg 98%
    17:00 +2°C° 0.1 mm 1 mps 746 mmHg 98%
    18:00 +2°C° 0.2 mm 1 mps 746 mmHg 98%
    19:00 +2°C° 0.2 mm 1 mps 746 mmHg 97%
    20:00 +2°C° 0.2 mm 1 mps 746 mmHg 97%
    21:00 +1°C° 0.1 mm 2 mps 746 mmHg 96%
    22:00 +1°C° 0.1 mm 2 mps 746 mmHg 96%
    23:00 +1°C° 0.1 mm 2 mps 746 mmHg 96%

    19 November, Monday

    Time Temperature Precipitation Wind Pressure Humidity
    00:00 +1°C° 0.1 mm 2 mps 747 mmHg 96%
    01:00 +1°C° 0.1 mm 2 mps 747 mmHg 96%
    02:00 +1°C° 0.1 mm 2 mps 747 mmHg 96%
    03:00 +1°C° 0.1 mm 2 mps 747 mmHg 96%
    04:00 -1°C° 0.1 mm 2 mps 748 mmHg 96%
    05:00 -1°C° 0.1 mm 2 mps 748 mmHg 96%
    06:00 -1°C° 0.1 mm 2 mps 748 mmHg 96%
    07:00 -1°C° 0.1 mm 2 mps 749 mmHg 96%
    08:00 -1°C° 0.1 mm 3 mps 749 mmHg 96%
    09:00 0°C° 0.1 mm 3 mps 749 mmHg 95%
    10:00 0°C° 0.1 mm 3 mps 750 mmHg 95%
    11:00 0°C° 0.1 mm 3 mps 750 mmHg 94%
    12:00 0°C° 0.1 mm 3 mps 750 mmHg 94%
    13:00 0°C° 0.1 mm 3 mps 750 mmHg 93%
    14:00 0°C° 0.1 mm 3 mps 750 mmHg 93%
    15:00 0°C° 0.1 mm 3 mps 751 mmHg 93%
    16:00 0°C° 0.1 mm 3 mps 751 mmHg 93%
    17:00 -1°C° 0.1 mm 3 mps 751 mmHg 93%
    18:00 -1°C° 0.1 mm 3 mps 751 mmHg 94%
    19:00 -1°C° 0.1 mm 3 mps 751 mmHg 94%
    20:00 -1°C° 0.1 mm 3 mps 751 mmHg 95%
    21:00 -1°C° 0.1 mm 3 mps 752 mmHg 94%
    22:00 -1°C° 0.1 mm 3 mps 752 mmHg 94%
    23:00 -2°C° 0.1 mm 3 mps 752 mmHg 93%

    20 November, Tuesday

    Time Temperature Precipitation Wind Pressure Humidity
    00:00 -2°C° 0 mm 3 mps 752 mmHg 92%
    01:00 -4°C° 0 mm 3 mps 752 mmHg 91%
    02:00 -4°C° 0 mm 3 mps 752 mmHg 89%
    03:00 -5°C° 0 mm 3 mps 752 mmHg 89%
    04:00 -5°C° 0 mm 3 mps 752 mmHg 88%
    05:00 -5°C° 0 mm 2 mps 752 mmHg 87%
    06:00 -6°C° 0 mm 3 mps 752 mmHg 86%
    07:00 -6°C° 0 mm 3 mps 752 mmHg 86%
    08:00 -6°C° 0 mm 3 mps 752 mmHg 85%
    09:00 -5°C° 0 mm 3 mps 752 mmHg 85%
    10:00 -4°C° 0 mm 3 mps 752 mmHg 85%
    11:00 -2°C° 0 mm 3 mps 752 mmHg 85%
    12:00 -2°C° 0 mm 3 mps 751 mmHg 86%
    13:00 -2°C° 0 mm 3 mps 751 mmHg 87%
    14:00 -1°C° 0 mm 2 mps 751 mmHg 89%
    15:00 -2°C° 0 mm 2 mps 750 mmHg 90%
    16:00 -2°C° 0 mm 2 mps 750 mmHg 92%
    17:00 -2°C° 0 mm 2 mps 750 mmHg 93%
    18:00 -2°C° 0 mm 2 mps 750 mmHg 94%
    19:00 -2°C° 0 mm 2 mps 750 mmHg 94%
    20:00 -2°C° 0 mm 2 mps 750 mmHg 95%
    21:00 -2°C° 0 mm 2 mps 750 mmHg 95%
    22:00 -2°C° 0 mm 2 mps 750 mmHg 95%
    23:00 0°C° 0 mm 1 mps 750 mmHg 95%

    21 November, Wednesday

    Time Temperature Precipitation Wind Pressure Humidity
    00:00 -2°C° 0 mm 2 mps 750 mmHg 95%
    01:00 -2°C° 0 mm 2 mps 749 mmHg 95%
    02:00 -2°C° 0 mm 2 mps 749 mmHg 95%
    03:00 -2°C° 0 mm 2 mps 749 mmHg 94%
    04:00 -2°C° 0 mm 2 mps 749 mmHg 94%
    05:00 -2°C° 0 mm 3 mps 749 mmHg 94%
    06:00 -2°C° 0 mm 3 mps 749 mmHg 94%
    07:00 -2°C° 0 mm 3 mps 749 mmHg 93%
    08:00 -2°C° 0 mm 3 mps 749 mmHg 93%
    09:00 -2°C° 0 mm 4 mps 749 mmHg 93%
    10:00 -2°C° 0 mm 4 mps 749 mmHg 92%
    11:00 -1°C° 0 mm 4 mps 750 mmHg 92%
    12:00 -1°C° 0 mm 4 mps 749 mmHg 91%
    13:00 -1°C° 0 mm 5 mps 749 mmHg 90%
    14:00 -1°C° 0 mm 5 mps 749 mmHg 90%
    15:00 -1°C° 0 mm 5 mps 749 mmHg 90%
    16:00 -1°C° 0 mm 5 mps 750 mmHg 90%
    17:00 -2°C° 0 mm 5 mps 750 mmHg 90%
    18:00 -2°C° 0 mm 5 mps 750 mmHg 89%
    19:00 -3°C° 0 mm 6 mps 750 mmHg 89%
    20:00 -3°C° 0 mm 6 mps 750 mmHg 88%
    21:00 -4°C° 0 mm 6 mps 750 mmHg 88%
    22:00 -4°C° 0 mm 6 mps 750 mmHg 88%
    23:00 -4°C° 0 mm 6 mps 750 mmHg 88%
    Show more